Probability
0 0 0 0 0 0 0 0 0 0 0 0 0 0 0 0 0 0 0 0 0 0 0 0 0 0 0 0 0 0 0 0 0 0 0 0 0 0 0 0 0 0 0 0 0 0 0 0 0
0 0 0 0 0 0 0 0 0 0 0 0 0 0 0 0 0 0 0 0 0 0 0 0 0 0 0 0 0 0 0 0 0 0 0 0 0 0 0 0 0 0 0 0 0 0 0 0 0
0 0 0 0 0 0 0 0 0 0 0 0 0 0 0 0 0 0 0 0 0 0 0 0 0 0 0 0 0 0 0 0 0 0 0 0 0 0 0 0 0 0 0 0 0 0 0 0 0
0 0 0 0 0 0 0 0 0 0 0 0 0 0 0 0 0 0 0 0 0 0 0 0 0 0 0 0 0 0 0 0 0 0 0 0 0 0 0 0 0 0 0 0 0 0 0 0 0
0 0 0 0 0 0 0 0 0 0 0 0 0 0 0 0 0 0 0 0 0 0 0 0 0 0 0 0 0 0 0 0 0 0 0 0 0 0 0 0 0 0 0 0 0 0 0 0 0
0 0 0 0 0 0 0 0 0 0 0 0 0 0 0 0 0 0 0 0 0 0 0 0 0 0 0 0 0 0 0 0 0 0 0 0 0 0 0 0 0 0 0 0 0 0 0 0 0
0 0 0 0 0 0 0 0 0 0 0 0 0 0 0 0 0 0 0 0 0 0 0 0 0 0 0 0 0 0 0 0 0 0 0 0 0 0 0 0 0 0 0 0 0 0 0 0 0
0 0 0 0 0 0 0 0 0 0 0 0 0 0 0 0 0 0 0 0 0 0 0 0 0 0 0 0 0 0 0 0 0 0 0 0 0 0 0 0 0 0 0 0 0 0 0 0 0
0 0 0 0 0 0 0 0 0 0 0 0 0 0 0 0 0 0 0 0 0 0 0 0 0 0 0 0 0 0 0 0 0 0 0 0 0 0 0 0 0 0 0 0 0 0 0 0 0
0 0 0 0 0 0 0 0 0 0 0 0 0 0 0 0 0 0 0 0 0 0 0 0 0 0 0 0 0 0 0 0 0 0 0 0 0 0 0 0 0 0 0 0 0 0 0 0 0
0 0 0 0 0 0 0 0 0 0 0 0 0 0 0 0 0 0 0 0 0 0 0 0 0 0 0 0 0 0 0 0 0 0 0 0 0 0 0 0 0 0 0 0 0 0 0 0 0
0 0 0 0 0 0 0 0 0 0 0 0 0 0 0 0 0 0 0 0 0 0 0 0 0 0 0 0 0 0 0 0 0 0 0 0 0 0 0 0 0 0 0 0 0 0 0 0 0
0 0 0 0 0 0 0 0 0 0 0 0 0 0 0 0 0 0 0 0 0 0 0 0 0 0 0 0 0 0 0 0 0 0 0 0 0 0 0 0 0 0 0 0 0 0 0 0 0
0 0 0 0 0 0 0 0 0 0 0 0 0 0 0 0 0 0 0 0 0 0 0 0 0 0 0 0 0 0 0 0 0 0 0 0 0 0 0 0 0 0 0 0 0 0 0 0 0
0 0 0 0 0 0 0 0 0 0 0 0 0 0 0 0 0 0 0 0 0 0 0 0 0 0 0 0 0 0 0 0 0 0 0 0 0 0 0 0 0 0 0 0 0 0 0 0 0
0 0 0 0 0 0 0 0 0 0 0 0 0 0 0 0 0 0 0 0 0 0 0 0 0 0 0 0 0 0 0 0 0 0 0 0 0 0 0 0 0 0 0 0 0 0 0 0 0
0 0 0 0 0 0 0 0 0 0 0 0 0 0 0 0 0 0 0 0 0 0 0 0 0 0 0 0 0 0 0 0 0 0 0 0 0 0 0 0 0 0 0 0 0 0 0 0 0
0 0 0 0 0 0 0 0 0 0 0 0 0 0 0 0 0 0 0 0 0 0 0 0 0 0 0 0 0 0 0 0 0 0 0 0 0 0 0 0 0 0 0 0 0 0 0 0 0
0 0 0 0 0 0 0 0 0 0 0 0 0 0 0 0 0 0 0 0 0 0 0 0 0 0 0 0 0 0 0 0 0 0 0 0 0 0 0 0 0 0 0 0 0 0 0 0 0
0 0 0 0 0 0 0 0 0 0 0 0 0 0 0 0 0 0 0 0 0 0 0 0 0 0 0 0 0 0 0 0 0 0 0 0 0 0 0 0 0 0 0 0 0 0 0 0 0
0 0 0 0 0 0 0 0 0 0 0 0 0 0 0 0 0 0 0 0 0 0 0 0 0 0 0 0 0 0 0 0 0 0 0 0 0 0 0 0 0 0 0 0 0 0 0 0 0
0 0 0 0 0 0 0 0 0 0 0 0 0 0 0 0 0 0 0 0 0 0 0 0 0 0 0 0 0 0 0 0 0 0 0 0 0 0 0 0 0 0 0 0 0 0 0 0 0
0 0 0 0 0 0 0 0 0 0 0 0 0 0 0 0 0 0 0 0 0 0 0 0 0 0 0 0 0 0 0 0 0 0 0 0 1 1 0 0 0 0 0 0 0 0 0 0 0
0 0 0 0 0 0 0 0 0 0 0 0 0 0 0 0 0 0 0 0 0 0 0 0 0 0 0 0 0 0 0 0 0 0 0 0 1 1 0 0 0 0 0 0 0 0 0 0 0
0 0 0 0 0 0 0 0 0 0 0 0 0 0 0 0 0 0 0 0 0 0 0 0 0 0 0 0 0 0 0 0 0 0 0 0 1 1 0 0 0 0 0 0 0 0 0 0 0
0 0 0 0 0 0 0 0 0 0 0 0 0 0 0 0 0 0 0 0 0 0 0 0 0 0 0 0 0 0 0 0 0 0 0 0 0 0 0 0 0 0 0 0 0 0 0 0 0
0 0 0 0 0 0 0 0 0 0 0 0 0 0 0 0 0 0 0 0 0 0 0 0 0 0 0 0 0 0 0 0 0 0 0 0 0 0 0 0 0 0 0 0 0 0 0 0 0
0 0 0 0 0 0 0 0 0 0 0 0 0 0 0 0 0 0 0 0 0 0 0 0 0 0 0 0 0 0 0 0 0 0 0 0 0 0 0 0 0 0 0 0 0 0 0 0 0
0 0 0 0 0 0 0 0 0 0 0 0 0 0 0 0 0 0 0 0 0 0 0 0 0 0 0 0 0 0 0 0 0 0 0 0 0 0 0 0 0 0 0 0 0 0 0 0 0
0 0 0 0 0 0 0 0 0 0 0 0 0 0 0 0 0 0 0 0 0 0 0 0 0 0 0 0 0 0 0 0 0 0 0 0 0 0 0 0 0 0 0 0 0 0 0 0 0
Wind_Speed
2 2 2 2 2 1 2 3 4 6 6 4 5 3 3 1 1 4 5 12 13 13 12 12 9 10 10 9 9 10 10 12 13 14 14 13 13 13 14 14 14 15 16 16 16 16 16 16 16
2 2 1 1 3 3 3 5 7 6 5 6 4 3 3 2 3 5 8 12 14 13 11 11 11 11 10 10 9 9 10 11 13 14 14 13 13 13 13 13 14 14 15 16 16 16 15 15 16
1 1 1 2 3 3 3 6 8 6 6 4 5 2 0 3 4 7 8 14 14 12 11 11 10 11 11 10 10 10 10 11 12 13 14 13 13 12 12 13 13 14 15 15 15 15 15 15 15
2 2 2 4 5 2 1 5 8 10 6 3 4 4 3 3 2 6 11 14 14 12 11 12 10 11 11 10 10 10 10 11 12 12 13 13 12 12 12 12 13 13 14 14 14 14 15 14 14
2 3 4 5 4 2 2 3 10 11 8 5 4 4 5 4 4 8 13 14 13 12 11 12 10 10 10 10 10 10 10 10 11 12 13 12 12 11 11 12 12 12 13 13 13 13 14 13 13
3 4 6 7 5 2 3 6 10 9 6 4 5 5 6 4 6 10 14 13 12 12 11 11 10 8 9 9 9 9 9 10 11 12 12 12 11 11 11 11 11 12 12 12 12 13 12 12 12
4 5 6 6 5 4 4 7 9 9 7 6 5 6 5 6 7 11 13 12 11 11 10 10 10 10 8 7 7 8 8 8 9 10 11 10 10 10 10 9 10 10 11 11 11 12 12 12 11
2 4 6 6 6 4 6 7 4 6 5 3 4 4 5 8 10 11 11 10 10 10 10 10 9 9 9 9 8 7 8 8 9 9 10 10 10 9 8 8 9 9 10 10 11 11 11 11 10
4 5 7 8 7 5 8 7 5 1 4 4 3 1 4 11 13 12 10 10 10 9 9 9 9 9 8 8 8 8 8 8 9 9 10 8 7 8 6 7 8 9 9 10 10 10 10 9 9
5 7 7 5 4 5 10 8 8 6 6 6 5 4 5 12 14 15 14 15 14 13 11 9 10 9 9 7 7 6 6 7 7 7 8 5 5 5 5 8 8 8 8 9 9 9 7 4 4
6 6 5 4 4 4 9 7 7 7 7 8 8 10 11 13 14 15 15 15 15 14 12 11 10 9 9 6 6 4 4 5 6 7 7 5 5 5 4 4 5 6 6 5 6 5 3 2 2
5 3 4 5 5 6 8 8 7 8 3 1 3 8 13 16 17 17 17 15 14 14 14 12 11 10 9 7 6 5 5 4 5 6 7 6 4 4 4 3 4 4 3 4 3 2 3 3 3
5 5 3 4 5 5 6 6 4 8 6 1 2 8 14 16 17 16 14 14 14 14 14 14 12 12 10 8 6 6 6 6 6 5 7 7 5 5 5 4 4 4 3 4 3 3 4 3 3
5 6 5 4 5 4 5 3 3 6 3 5 6 9 12 15 16 14 15 15 16 15 15 14 14 13 11 9 8 7 6 6 6 6 7 8 6 5 5 5 5 4 4 3 3 4 4 3 3
6 8 5 3 4 3 4 5 9 4 2 6 7 8 10 12 13 15 16 16 16 15 15 15 14 13 13 11 10 7 7 7 6 6 8 8 7 7 6 5 5 5 4 5 4 4 3 3 3
6 7 8 4 3 2 6 11 6 1 5 8 8 8 9 11 14 14 15 15 15 14 15 15 12 13 14 12 10 8 7 8 7 6 7 9 9 8 7 6 6 6 5 5 5 5 5 5 5
8 11 11 6 3 4 8 10 3 2 3 7 8 8 9 10 13 14 15 15 15 15 15 15 15 15 14 13 10 9 8 8 7 7 7 8 10 10 8 6 6 7 5 5 5 5 5 6 6
12 10 9 11 5 6 8 11 7 5 5 8 8 8 9 11 12 11 12 14 14 15 15 16 16 16 14 11 9 8 9 9 8 8 9 10 10 11 9 6 7 7 6 6 7 7 6 5 5
11 10 9 5 3 6 10 13 13 9 9 12 12 11 11 11 8 7 8 10 12 14 16 17 17 16 13 10 10 10 10 9 9 9 11 12 11 12 11 8 8 9 8 9 9 6 7 6 4
9 9 7 3 2 3 5 11 13 11 10 12 13 12 11 10 8 6 7 8 10 13 15 17 17 17 16 13 12 10 10 9 9 9 11 13 12 12 10 11 9 10 8 9 10 9 5 5 6
6 8 8 6 4 2 4 9 9 7 6 8 11 11 10 9 10 7 5 6 8 10 12 12 16 16 17 16 11 8 7 7 7 9 9 12 13 13 12 13 11 11 10 10 12 12 10 8 8
9 4 7 7 5 2 2 7 5 4 6 9 10 9 8 7 7 6 5 5 6 7 8 11 12 13 14 14 13 14 11 12 12 9 8 9 11 12 12 12 12 11 10 11 11 12 11 9 8
5 6 6 4 3 2 4 7 8 2 8 10 7 5 3 3 3 3 2 3 2 2 4 6 8 10 11 13 14 14 13 11 8 7 8 8 8 10 11 11 11 11 10 11 10 10 11 9 9
12 9 7 4 2 8 8 9 9 7 9 5 3 2 1 1 1 1 2 2 2 2 2 3 5 6 8 10 11 12 12 11 8 7 6 5 5 6 9 9 9 10 9 10 10 11 12 11 11
9 10 5 5 6 8 4 8 12 7 6 4 3 2 1 1 1 2 3 4 5 5 5 4 5 5 5 6 7 8 9 8 8 6 5 5 4 4 6 6 7 7 8 9 9 9 11 12 12
12 14 10 9 8 5 4 11 10 4 4 5 4 3 1 1 2 4 4 5 6 6 6 6 6 6 5 4 3 3 3 3 2 3 3 3 2 2 3 4 5 6 7 7 8 8 9 9 11
12 9 3 5 3 2 7 9 10 6 6 6 5 5 4 4 4 5 5 6 6 7 7 7 7 7 7 6 5 4 3 3 2 2 1 0 1 1 2 2 4 4 5 6 7 7 8 8 9
4 11 7 7 7 7 7 8 7 6 9 8 8 8 7 6 6 6 6 6 6 7 7 8 8 8 7 7 6 5 5 4 3 3 2 2 1 2 2 2 3 4 4 5 5 6 7 8 8
9 8 7 8 5 7 7 9 5 9 8 10 9 8 8 7 7 6 6 6 6 7 7 8 8 8 7 7 7 6 6 5 4 4 3 3 2 2 2 3 3 4 4 5 5 6 7 8 9
7 12 12 10 9 7 6 8 2 5 5 6 8 8 7 7 6 6 6 6 6 7 7 7 8 8 7 6 6 7 6 5 5 4 4 3 3 3 3 3 3 4 4 5 5 7 7 8 10
Wind_Direction
355 334 285 269 245 224 160 140 150 145 151 141 153 184 199 173 335 64 100 149 141 143 143 141 135 132 127 121 119 118 115 113 112 108 104 99 96 93 90 88 87 86 86 84 83 82 81 79 78
352 308 237 265 254 217 166 163 172 155 126 131 150 178 190 140 52 97 139 151 147 144 145 143 133 135 131 126 121 118 117 117 116 113 108 103 100 96 92 90 89 88 88 87 86 85 84 83 82
87 337 233 216 239 240 157 171 170 129 135 163 155 163 163 86 115 137 145 153 149 146 145 135 138 139 136 131 124 118 116 118 118 116 112 107 103 99 94 91 91 90 89 90 90 89 87 86 85
220 167 185 231 228 237 209 160 161 149 156 174 174 148 119 53 113 136 147 156 151 148 146 141 145 143 140 136 130 124 119 119 119 117 115 110 107 102 98 94 92 91 91 92 92 92 90 89 88
225 198 203 220 229 192 197 171 172 167 166 165 190 155 127 98 114 142 154 160 155 151 149 147 147 144 143 141 136 131 127 123 121 119 117 114 111 108 104 99 96 95 94 95 94 94 92 90 88
174 193 208 213 202 180 177 169 175 177 164 163 190 163 124 117 143 152 158 164 159 154 152 149 144 143 143 142 140 135 130 128 126 124 123 120 117 113 108 104 101 99 99 98 97 97 95 94 91
200 193 206 205 190 180 159 166 182 177 182 177 190 172 139 154 153 156 161 164 162 159 158 158 157 153 145 139 136 131 128 126 128 128 124 118 114 112 107 105 105 103 104 103 101 100 100 98 95
215 184 183 193 189 168 145 162 177 186 175 122 196 201 152 153 149 155 159 164 166 169 170 166 165 163 160 155 138 130 126 123 119 117 116 113 112 108 105 113 107 108 107 106 105 103 101 99 96
203 195 195 192 188 161 158 168 148 169 146 163 206 348 67 133 149 156 162 171 175 180 181 176 173 171 167 162 151 146 134 126 128 124 123 136 140 134 131 112 105 108 109 108 108 105 102 103 100
195 203 198 184 185 160 169 179 156 174 187 193 191 160 136 151 163 172 179 183 186 188 188 186 184 178 174 166 165 166 162 158 163 155 155 156 145 134 128 106 98 98 103 110 107 107 115 128 124
191 197 167 167 171 157 165 170 167 190 209 214 206 177 159 169 178 187 191 192 193 191 190 193 191 186 183 175 174 171 168 168 171 168 166 159 153 146 150 141 134 132 134 129 125 137 143 138 135
175 158 151 151 152 160 166 160 181 214 218 44 236 168 169 180 189 195 197 196 195 196 196 196 195 193 193 188 183 180 178 177 176 175 176 171 168 168 165 166 160 160 159 153 158 152 148 148 151
171 152 130 118 135 145 148 173 199 225 222 216 153 175 187 192 198 202 201 199 200 202 201 199 198 198 196 195 193 191 190 189 183 180 184 188 181 178 176 174 176 177 171 175 175 173 167 170 171
150 133 126 125 130 143 164 172 231 234 201 209 206 202 202 204 203 201 203 204 205 206 204 201 201 201 199 200 201 198 197 192 191 191 193 194 193 185 182 182 186 185 185 185 188 185 184 187 192
131 129 125 129 146 145 167 221 227 214 192 222 222 219 217 217 212 211 209 209 207 207 206 205 205 204 204 205 206 205 201 198 197 197 198 197 199 193 189 187 191 189 184 182 185 185 194 198 205
138 164 188 169 167 152 202 240 219 180 230 240 236 231 228 225 224 223 220 217 214 209 209 208 204 207 208 207 207 206 204 202 203 200 198 202 202 199 194 194 197 187 182 188 192 192 198 205 212
179 201 204 179 183 173 212 246 216 156 232 248 244 241 240 237 233 229 226 223 219 215 211 210 208 209 210 209 209 208 205 205 205 201 199 201 202 201 201 202 196 185 187 194 194 203 212 214 217
185 188 190 198 173 186 216 240 240 223 252 260 257 252 246 244 241 233 227 225 223 220 217 214 212 213 211 209 209 208 209 209 207 204 203 200 201 201 202 203 195 185 191 198 201 206 212 225 220
176 180 187 180 139 200 229 249 256 254 253 257 255 250 248 249 252 242 232 224 221 220 219 216 214 212 209 207 207 210 213 210 209 207 206 204 203 200 201 200 197 194 202 206 204 201 208 217 200
159 175 174 128 94 217 255 264 262 254 246 247 251 250 248 250 247 241 238 225 218 218 218 218 217 213 210 211 212 216 219 216 212 207 209 208 206 203 203 204 201 200 206 208 205 199 202 205 189
168 183 173 152 128 100 299 268 246 242 240 250 248 252 257 257 262 261 248 237 226 222 219 217 217 216 214 213 213 211 216 218 212 212 212 211 210 208 208 210 207 206 206 210 208 204 207 213 205
197 183 150 143 172 199 259 270 258 246 267 251 244 238 247 255 261 268 268 258 241 234 227 223 219 217 215 212 213 212 213 218 221 220 216 210 210 214 214 215 214 212 211 217 215 210 216 218 214
141 121 119 129 157 236 212 254 267 265 259 249 234 226 248 282 283 281 287 289 285 257 224 214 211 212 211 210 213 215 221 226 227 221 219 215 211 216 220 220 219 219 218 221 219 212 216 219 225
128 104 82 84 166 247 217 224 261 222 224 225 174 147 54 16 22 38 47 48 56 70 117 162 179 192 199 204 210 215 219 221 221 219 217 214 212 216 221 223 224 225 224 224 222 219 217 220 228
165 148 150 179 209 233 155 226 249 240 234 238 250 283 349 4 62 73 70 69 68 71 81 103 124 136 162 184 200 210 215 218 220 218 219 220 221 223 225 223 228 230 231 231 226 223 224 223 226
186 185 181 189 206 206 180 235 251 261 270 261 257 246 216 122 95 81 71 72 71 69 75 88 96 98 107 126 144 168 185 195 197 205 211 219 232 242 254 241 240 240 238 236 231 230 230 228 230
167 199 164 124 104 222 225 251 280 258 251 232 207 184 163 133 110 94 83 78 75 72 71 78 87 87 85 90 96 97 104 119 125 126 141 191 273 313 288 267 261 260 256 250 244 241 239 235 235
190 151 148 172 173 222 244 240 237 207 212 197 182 169 152 139 124 107 94 85 77 75 76 76 78 80 78 79 79 78 77 79 84 85 77 57 22 355 322 303 288 282 277 271 263 261 255 248 245
147 171 181 179 192 199 237 245 212 211 198 187 177 164 155 145 134 123 108 93 86 82 81 81 80 80 77 77 81 82 77 75 74 69 54 33 19 2 339 321 306 295 288 282 273 268 270 264 262
198 188 176 184 204 211 230 256 97 225 207 182 167 157 149 143 136 126 115 106 96 87 81 78 76 73 71 75 78 77 73 70 66 58 46 33 21 6 349 331 315 306 297 290 282 278 275 271 270